Home > Weather > Youngstown > Past weeks

Flag for U.S.A. Weather for the Past 2 Weeks in Youngstown, Ohio, U.S.A.

Now
8 °F

Passing clouds.


Feels Like: -3 °F
Forecast: 10 / 24 °F
Wind: 7 mph from Southwest

Location: Youngstown-Warren Regional Airport

Current Time: Feb 11, 2016 at 11:49:07 PM

Latest Report: Feb 11, 2016 at 10:51 PM


Visibility: 10 mi

Pressure: 30.30 "Hg

Humidity: 83%

Dew point: 4 °F

Location of YoungstownLocation

Historic Weather in Youngstown — Graph

°F

Youngstown Temperature Yesterday

Maximum temperature yesterday: 25 °F (at 12:51 AM)
Minimum temperature yesterday: 16 °F (at 11:59 PM)
Average temperature yesterday: 21 °F

High & Low Weather Summary for the Past Weeks

 TemperatureHumidityPressure
High62 °F (Feb 3, 2:51 PM)93% (Feb 3, 2:58 AM)30.40 "Hg (Feb 3, 2:58 AM)
Low7 °F (Feb 11, 8:51 PM)36% (Feb 2, 1:51 PM)29.54 "Hg (Feb 9, 4:51 AM)
Average34 °F69%29.93 "Hg
* Reported Jan 27 9:51 PM — Feb 11 9:51 PM, Youngstown, Weather by CustomWeather, © 2016

Note: Actual official high and low records may vary slightly from our data, if they occured in-between our weather recording intervals... More about our weather records

Advertising

Youngstown Weather History for the Previous 24 Hours

 ConditionsComfort  
Time TempWeatherWind HumidityBarometerVisibility
9:51 PM
Thu, Feb 11
9 °FPassing clouds.6 mph88%30.30 "Hg10 mi
8:51 PM7 °FPassing clouds.7 mph91%30.31 "Hg10 mi
7:51 PM9 °FPassing clouds.7 mph73%30.30 "Hg10 mi
6:51 PM12 °FPassing clouds.6 mph67%30.29 "Hg10 mi
5:51 PM15 °FLight snow. Passing clouds.7 mph67%30.27 "Hg9 mi
4:51 PM16 °FLight snow. Partly sunny.12 mph71%30.25 "Hg7 mi
3:51 PM17 °FScattered clouds.15 mph54%30.22 "Hg9 mi
2:51 PM18 °FLight snow. Partly sunny.13 mph45%30.20 "Hg9 mi
1:51 PM17 °FLight snow. Partly sunny.15 mph70%30.19 "Hg4 mi
1:00 PM15 °FLight snow. Overcast.14 mph74%30.12 "Hg5 mi
11:51 AM16 °FLight snow. Partly sunny.16 mph56%30.18 "Hg9 mi
10:51 AM14 °FLight snow. Mostly cloudy.17 mph73%30.17 "Hg1 mi
9:51 AM14 °FLight snow. Mostly cloudy.18 mph56%30.14 "Hg7 mi
8:51 AM13 °FLight snow. Overcast.10 mph64%30.12 "Hg9 mi
7:51 AM12 °FLight snow. Overcast.10 mph73%30.10 "Hg5 mi
6:51 AM12 °FLight snow. Mostly cloudy.10 mph77%30.07 "Hg4 mi
5:51 AM12 °FLight snow. Mostly cloudy.12 mph77%30.05 "Hg5 mi
4:51 AM13 °FLight snow. Mostly cloudy.13 mph64%30.02 "Hg9 mi
3:51 AM13 °FLight snow. Overcast.14 mph64%30.01 "Hg9 mi
2:51 AM13 °FLight snow. Overcast.9 mph81%29.99 "Hg7 mi
1:51 AM14 °FLight snow. Mostly cloudy.14 mph80%29.98 "Hg1 mi
12:51 AM15 °FLight snow. Mostly cloudy.13 mph77%29.96 "Hg1 mi
11:59 PM
Wed, Feb 10
16 °FLight snow. Mostly cloudy.12 mph84%29.90 "Hg1 mi
Weather by CustomWeather, © 2016

See weather overviewHow to use our weather pages